"Pseudo-MPEC" for P10OvCy

Created 2019 Jun 20 19:07:24 UT using Find_Orb

Click here for an explanation of pseudo-MPECs

 
 Astrometry: 
     P10OvCy  C2019 06 01cIK%.8AZ:9h)nJ*q;Iq)QQd6W8duad@r9b,mVy5Astrometry_n`F51
     P10OvCy  C2019 06 01jnWredacted;+q)hI/t3+%dgO[-!tI.AZ-V?!pcI(IA1kDteWtq6F51
     P10OvCy  C2019 06 019Q#B2eC`h+[H9lBnb_rjbmU.7*sH$D^=P_[]Wclick#h8L[*H*GaF51
     P10OvCy  C2019 06 07V7JIGX:Q+/*'4p@PQ#-UF[[*]?QDuCnxD8ufT^p/e*%,41cv@/v!F51
     P10OvCy ^C2019 06 07kZ^0f(`/Q^-1Q\w_@mn,QNl@9UYe840LLt8T4G_sTq$6nc12qG`cF51
     P10OvCy  C2019 06 07gy)2]uFGHrB`0b@)p7-a_KrU]i#C,DvJN.b#T/K+f,(Lyx=a9W21F51
     P10OvCy ^C2019 06 072oTil`4BePM?^6hereEBeJ8mQ7Enx_%dp8Y%[%?oG*eQ1+iH*-DoF51
     P10OvCy  C2019 06 072\cMa1LF7jq)$vd)oZ+E\1*L3h3W7EmS.AotG;17fn;XE2l*2lfwF51
     P10OvCy ^C2019 06 07vleeBV%60hWYb$tMo;A1Wy0il:U^Z-4'rSan0f*tT;Sps'CiBdTTF51
     P10OvCy  C2019 06 07ddw0X-Hlfor:\sf64Z!?t/Z'..IQ+h+_,I\[iexplanationdM]!F51
     P10OvCy ^C2019 06 07#65^jjWdkkZyT]P_%[D1^Z'?$EmaFHe6]#'(ZE\KkKESU*Yk(jObF51
     P10OvCy  C2019 06 07.57669621 41 02.295+15 46 18.15FixDup   22.34GVNEOCP568
     P10OvCy ^C2019 06 07.57669621 41 02.295+15 46 18.15Duplicat!22.34GVNEOCP568
     P10OvCy  C2019 06 07.57765121 41 02.299+15 46 18.55FixDup   22.24GVNEOCP568
     P10OvCy ^C2019 06 07.57765121 41 02.299+15 46 18.55Duplicat!22.24GVNEOCP568
     P10OvCy  C2019 06 07.57860221 41 02.297+15 46 18.90FixDup   22.25GVNEOCP568
     P10OvCy ^C2019 06 07.57860221 41 02.297+15 46 18.90Duplicat!22.25GVNEOCP568

Station data:
(568) Mauna Kea  (N19.826116 W155.472200)  US/Hawaii.
(F51) Pan-STARRS 1, Haleakala  (N20.707235 W156.255910)  US/Hawaii.
   Observers N. Primak, A. Schultz, S. Watters, J. Thiel, T. Goggia. Measurer
   PS1 Science Consortium. 1.8-m Ritchey-Chrétien + CCD.

Orbital elements:  P10OvCy
   Perihelion 2022 Apr 2.722190 +/- 487 TT = 17:19:57 (JD 2459672.222190)
Epoch 2019 Jun  7.0 TT = JDT 2458641.5                        AutoNEOCP
M 184.93772420 +/- 120              (J2000 ecliptic)
n   0.16984428 +/- 0.124            Peri.  274.35372 +/- 80
a   3.22925311 +/- 1.57             Node   220.01781 +/- 30
e   0.2831732 +/- 0.231             Incl.   25.77629 +/- 2.5
P   5.80                   H 15.9   G  0.15   U 11.4  SR
q 2.31481507 +/- 1.73    Q 4.14369114 +/- 44.9
10 of 17 observations 2019 June 1-7; mean residual 0".10
Residuals in arcseconds: 
190601 F51  .03+  .04-    190607 F51( .26-  .03-)   190607 568( .12+  .03-)   
190601 F51  .06+  .05+    190607 F51  .02-  .18+    190607 568  .16+  .00     
190601 F51  .09-  .01-    190607 F51( .02-  .18+)   190607 568( .16+  .00 )   
190607 F51  .03-  .04+    190607 F51  .09-  .14-    190607 568  .11+  .02-    
190607 F51( .03-  .04+)   190607 F51( .09-  .14-)   190607 568( .00   .00 )   
190607 F51  .26-  .03-    190607 568  .12+  .03-    

Ephemerides (geocentric):
Date (UTC) HH   RA              Dec         delta   r     elong  mag " sig PA
---- -- -- --  -------------   -----------  ------ ------ -----  --- ---- ---
2019 06 20 19  21 40 13.852   +17 04 12.90  3.6536 4.1392 111.8 22.6  515 154
2019 06 20 20  21 40 13.447   +17 04 26.08  3.6531 4.1392 111.8 22.6  518 154
2019 06 20 21  21 40 13.040   +17 04 39.24  3.6526 4.1392 111.8 22.6  521 154
2019 06 20 22  21 40 12.631   +17 04 52.40  3.6521 4.1392 111.9 22.6  524 154
2019 06 20 23  21 40 12.221   +17 05 05.55  3.6516 4.1392 111.9 22.6  526 154
2019 06 21 00  21 40 11.809   +17 05 18.68  3.6511 4.1392 111.9 22.6  529 154
2019 06 21 01  21 40 11.396   +17 05 31.81  3.6506 4.1392 111.9 22.6  532 154
2019 06 21 02  21 40 10.981   +17 05 44.92  3.6501 4.1392 112.0 22.6  535 154
2019 06 21 03  21 40 10.564   +17 05 58.02  3.6496 4.1391 112.0 22.6  538 154
2019 06 21 04  21 40 10.146   +17 06 11.11  3.6491 4.1391 112.0 22.6  541 154
2019 06 21 05  21 40 09.726   +17 06 24.19  3.6486 4.1391 112.1 22.6  544 154
2019 06 21 06  21 40 09.304   +17 06 37.26  3.6481 4.1391 112.1 22.6  546 154
2019 06 21 07  21 40 08.881   +17 06 50.32  3.6475 4.1391 112.1 22.6  549 154
2019 06 21 08  21 40 08.457   +17 07 03.36  3.6470 4.1391 112.2 22.6  552 154
2019 06 21 09  21 40 08.031   +17 07 16.40  3.6465 4.1391 112.2 22.6  555 154
2019 06 21 10  21 40 07.603   +17 07 29.42  3.6460 4.1391 112.2 22.6  558 154
2019 06 21 11  21 40 07.173   +17 07 42.44  3.6455 4.1391 112.3 22.6  561 154
2019 06 21 12  21 40 06.742   +17 07 55.44  3.6450 4.1391 112.3 22.6  564 154
2019 06 21 13  21 40 06.310   +17 08 08.43  3.6445 4.1391 112.3 22.6  567 154
2019 06 21 14  21 40 05.876   +17 08 21.41  3.6440 4.1390 112.4 22.6  570 154
2019 06 21 15  21 40 05.440   +17 08 34.38  3.6435 4.1390 112.4 22.6  573 154
2019 06 21 16  21 40 05.002   +17 08 47.33  3.6430 4.1390 112.4 22.6  576 154
2019 06 21 17  21 40 04.563   +17 09 00.28  3.6425 4.1390 112.5 22.6  579 154
2019 06 21 18  21 40 04.123   +17 09 13.21  3.6420 4.1390 112.5 22.6  582 154
2019 06 21 19  21 40 03.680   +17 09 26.14  3.6415 4.1390 112.5 22.6  585 154
2019 06 21 20  21 40 03.237   +17 09 39.05  3.6410 4.1390 112.6 22.6  588 154
2019 06 21 21  21 40 02.791   +17 09 51.95  3.6405 4.1390 112.6 22.6  591 154
2019 06 21 22  21 40 02.344   +17 10 04.84  3.6400 4.1390 112.6 22.6  594 154
2019 06 21 23  21 40 01.896   +17 10 17.72  3.6395 4.1390 112.7 22.6  597 154
2019 06 22 00  21 40 01.446   +17 10 30.58  3.6390 4.1390 112.7 22.6  600 154
2019 06 22 01  21 40 00.994   +17 10 43.44  3.6385 4.1389 112.7 22.6  603 154
2019 06 22 02  21 40 00.540   +17 10 56.28  3.6380 4.1389 112.8 22.6  606 154
2019 06 22 03  21 40 00.085   +17 11 09.12  3.6375 4.1389 112.8 22.6  609 154
2019 06 22 04  21 39 59.629   +17 11 21.94  3.6370 4.1389 112.8 22.6  612 154
2019 06 22 05  21 39 59.171   +17 11 34.75  3.6365 4.1389 112.9 22.6  615 154
2019 06 22 06  21 39 58.711   +17 11 47.55  3.6360 4.1389 112.9 22.6  618 154
2019 06 22 07  21 39 58.250   +17 12 00.33  3.6355 4.1389 112.9 22.6  621 154
2019 06 22 08  21 39 57.787   +17 12 13.11  3.6350 4.1389 113.0 22.6  624 154
2019 06 22 09  21 39 57.322   +17 12 25.87  3.6345 4.1389 113.0 22.6  627 154
2019 06 22 10  21 39 56.856   +17 12 38.63  3.6340 4.1389 113.0 22.6  630 154
2019 06 22 11  21 39 56.388   +17 12 51.37  3.6335 4.1389 113.1 22.6  633 154
2019 06 22 12  21 39 55.919   +17 13 04.10  3.6330 4.1388 113.1 22.6  636 154
2019 06 22 13  21 39 55.448   +17 13 16.82  3.6325 4.1388 113.1 22.6  639 154
2019 06 22 14  21 39 54.975   +17 13 29.52  3.6320 4.1388 113.2 22.6  643 154
2019 06 22 15  21 39 54.501   +17 13 42.22  3.6316 4.1388 113.2 22.6  646 154
2019 06 22 16  21 39 54.025   +17 13 54.90  3.6311 4.1388 113.2 22.6  649 154
2019 06 22 17  21 39 53.548   +17 14 07.58  3.6306 4.1388 113.3 22.6  652 154
2019 06 22 18  21 39 53.069   +17 14 20.24  3.6301 4.1388 113.3 22.6  655 154